Tracking 35334 objects as of 13-Sep-2026
HD Live streaming from Space Station
objects crossing your sky now

XTAR-EUR

Track XTAR-EUR now!
XTAR-EUR is classified as:


NORAD ID: 28542
Int'l Code: 2005-005A
Launch date: February 12, 2005
Source: United States (US)
Launch site: FRENCH GUIANA (FRGUI)

X-band; designed to be compatible with U.S. and NATO SATCOM systems.
Your satellite tracking list
Your tracking list is empty




NASA's NSSDC Master Catalog

Two Line Element Set (TLE):
1 28542U 05005A   26255.12544969  .00000021  00000-0  00000-0 0  9994
2 28542   4.5614  75.6703 0002916 109.0207 251.3534  0.98997316 79010
Source of the keplerian elements: AFSPC